Wetterdaten: Donnerstag, 05.05.2016
Datum Zeit Auen-Temp. Temp gefhlt Luftfeuchte Luftdruck Regen Wind Richtung Richtung Sonnenschein Taupunkt Windben
05.05.2016 00:00 1,8 C 1,1 C 82 % 1024,2 hPa 0,0 mm 0,6 km/h (0 Bft) SO 135 0 min -0,9 C 0,0 km/h (0 Bft)
05.05.2016 00:05 1,8 C 1,2 C 82 % 1024,2 hPa 0,0 mm 0,3 km/h (0 Bft) N-NO 22 0 min -0,9 C 0,0 km/h (0 Bft)
05.05.2016 00:07 1,2 C 0,7 C 81 % 1024,2 hPa 0,0 mm 0,0 km/h (0 Bft) NW 315 0 min -1,7 C 0,0 km/h (0 Bft)
05.05.2016 00:08 1,2 C 0,7 C 81 % 1024,2 hPa 0,0 mm 0,0 km/h (0 Bft) NW 315 0 min -1,7 C 0,0 km/h (0 Bft)
05.05.2016 00:10 1,2 C 0,7 C 81 % 1024,2 hPa 0,0 mm 0,0 km/h (0 Bft) NW 315 0 min -1,7 C 0,0 km/h (0 Bft)
05.05.2016 00:15 1,5 C 0,8 C 82 % 1024,1 hPa 0,0 mm 0,0 km/h (0 Bft) O-NO 67 0 min -1,2 C 0,0 km/h (0 Bft)
05.05.2016 00:20 1,1 C 0,5 C 82 % 1024,1 hPa 0,0 mm 0,0 km/h (0 Bft) N-NO 22 0 min -1,6 C 0,0 km/h (0 Bft)
05.05.2016 00:25 0,8 C 0,3 C 82 % 1024,1 hPa 0,0 mm 0,0 km/h (0 Bft) N 360 0 min -1,9 C 0,0 km/h (0 Bft)
05.05.2016 00:30 0,6 C 0,1 C 81 % 1024,1 hPa 0,0 mm 0,0 km/h (0 Bft) NO 45 0 min -2,3 C 0,0 km/h (0 Bft)
05.05.2016 00:35 0,3 C -0,2 C 81 % 1024,1 hPa 0,0 mm 0,0 km/h (0 Bft) S 180 0 min -2,6 C 0,0 km/h (0 Bft)
05.05.2016 00:40 0,3 C -0,3 C 81 % 1024,1 hPa 0,0 mm 0,0 km/h (0 Bft) NO 45 0 min -2,6 C 0,0 km/h (0 Bft)
05.05.2016 00:45 0,0 C -0,6 C 81 % 1024,1 hPa 0,0 mm 0,0 km/h (0 Bft) NO 45 0 min -2,9 C 0,0 km/h (0 Bft)
05.05.2016 00:50 0,0 C -0,5 C 81 % 1024,1 hPa 0,0 mm 0,0 km/h (0 Bft) W-SW 247 0 min -2,9 C 0,0 km/h (0 Bft)
05.05.2016 00:55 0,2 C -0,5 C 82 % 1024,0 hPa 0,0 mm 0,0 km/h (0 Bft) N-NO 22 0 min -2,5 C 0,0 km/h (0 Bft)
05.05.2016 01:00 0,1 C -0,5 C 82 % 1024,0 hPa 0,0 mm 0,0 km/h (0 Bft) NO 45 0 min -2,6 C 0,0 km/h (0 Bft)
05.05.2016 01:05 0,1 C -0,5 C 82 % 1024,0 hPa 0,0 mm 0,0 km/h (0 Bft) W-NW 292 0 min -2,6 C 0,0 km/h (0 Bft)
05.05.2016 01:10 -0,1 C -0,7 C 82 % 1024,0 hPa 0,0 mm 0,0 km/h (0 Bft) NO 45 0 min -2,8 C 0,0 km/h (0 Bft)
05.05.2016 01:15 0,1 C -0,5 C 83 % 1023,9 hPa 0,0 mm 0,0 km/h (0 Bft) O-NO 67 0 min -2,4 C 0,0 km/h (0 Bft)
05.05.2016 01:20 0,2 C -0,4 C 83 % 1023,9 hPa 0,0 mm 0,0 km/h (0 Bft) SO 135 0 min -2,3 C 0,0 km/h (0 Bft)
05.05.2016 01:25 -0,1 C -0,7 C 84 % 1023,9 hPa 0,0 mm 0,0 km/h (0 Bft) O-SO 112 0 min -2,5 C 0,0 km/h (0 Bft)
05.05.2016 01:30 0,0 C -0,6 C 84 % 1023,9 hPa 0,0 mm 0,0 km/h (0 Bft) O 90 0 min -2,4 C 0,0 km/h (0 Bft)
05.05.2016 01:35 -0,4 C -1,0 C 83 % 1023,6 hPa 0,0 mm 0,0 km/h (0 Bft) W-NW 292 0 min -2,9 C 0,0 km/h (0 Bft)
05.05.2016 01:40 -0,3 C -0,9 C 83 % 1023,6 hPa 0,0 mm 0,0 km/h (0 Bft) O-NO 67 0 min -2,8 C 0,0 km/h (0 Bft)
05.05.2016 01:45 -0,2 C -0,8 C 84 % 1023,6 hPa 0,0 mm 0,0 km/h (0 Bft) SO 135 0 min -2,6 C 0,0 km/h (0 Bft)
05.05.2016 01:50 -0,1 C -0,7 C 85 % 1023,6 hPa 0,0 mm 0,0 km/h (0 Bft) W-SW 247 0 min -2,3 C 0,0 km/h (0 Bft)
05.05.2016 01:55 -0,6 C -1,0 C 84 % 1023,7 hPa 0,0 mm 0,0 km/h (0 Bft) NW 315 0 min -3,0 C 0,0 km/h (0 Bft)
05.05.2016 02:00 -0,5 C -1,0 C 84 % 1023,7 hPa 0,0 mm 0,0 km/h (0 Bft) W 270 0 min -2,9 C 0,0 km/h (0 Bft)
05.05.2016 02:05 -0,4 C -0,9 C 84 % 1023,7 hPa 0,0 mm 0,0 km/h (0 Bft) O-NO 67 0 min -2,8 C 0,0 km/h (0 Bft)
05.05.2016 02:10 -0,4 C -0,9 C 85 % 1023,7 hPa 0,0 mm 0,0 km/h (0 Bft) N 360 0 min -2,6 C 0,0 km/h (0 Bft)
05.05.2016 02:15 -0,8 C -1,2 C 84 % 1023,4 hPa 0,0 mm 0,0 km/h (0 Bft) N-NO 22 0 min -3,2 C 0,0 km/h (0 Bft)
05.05.2016 02:20 -0,9 C -1,3 C 85 % 1023,4 hPa 0,0 mm 0,6 km/h (0 Bft) O-NO 67 0 min -3,1 C 4,2 km/h (1 Bft)
05.05.2016 02:25 -0,9 C -1,3 C 85 % 1023,4 hPa 0,0 mm 0,6 km/h (0 Bft) O-NO 67 0 min -3,1 C 0,0 km/h (0 Bft)
05.05.2016 02:30 -0,7 C -1,2 C 85 % 1023,4 hPa 0,0 mm 0,6 km/h (0 Bft) O-SO 112 0 min -2,9 C 0,0 km/h (0 Bft)
05.05.2016 02:35 -0,6 C -1,2 C 86 % 1023,4 hPa 0,0 mm 0,0 km/h (0 Bft) O-NO 67 0 min -2,6 C 0,0 km/h (0 Bft)
05.05.2016 02:40 -0,7 C -1,3 C 86 % 1023,4 hPa 0,0 mm 0,0 km/h (0 Bft) S 180 0 min -2,7 C 0,0 km/h (0 Bft)
05.05.2016 02:45 -0,8 C -1,3 C 86 % 1023,4 hPa 0,0 mm 0,0 km/h (0 Bft) W-SW 247 0 min -2,8 C 0,0 km/h (0 Bft)
05.05.2016 02:50 -1,0 C -1,5 C 86 % 1023,4 hPa 0,0 mm 0,0 km/h (0 Bft) N-NW 337 0 min -3,0 C 0,0 km/h (0 Bft)
05.05.2016 02:55 -0,8 C -1,4 C 86 % 1022,9 hPa 0,0 mm 0,3 km/h (0 Bft) S 180 0 min -2,8 C 0,0 km/h (0 Bft)
05.05.2016 03:00 -0,6 C -1,2 C 86 % 1022,9 hPa 0,0 mm 0,3 km/h (0 Bft) W-SW 247 0 min -2,6 C 0,0 km/h (0 Bft)
05.05.2016 03:05 -0,9 C -1,4 C 86 % 1022,9 hPa 0,0 mm 0,3 km/h (0 Bft) O-NO 67 0 min -2,9 C 0,0 km/h (0 Bft)
05.05.2016 03:07 -1,3 C -1,6 C 86 % 1022,9 hPa 0,0 mm 0,0 km/h (0 Bft) O-NO 67 0 min -3,3 C 0,0 km/h (0 Bft)
05.05.2016 03:09 -1,3 C -1,6 C 86 % 1022,9 hPa 0,0 mm 0,0 km/h (0 Bft) O-NO 67 0 min -3,3 C 0,0 km/h (0 Bft)
05.05.2016 03:10 -1,3 C -1,6 C 86 % 1022,9 hPa 0,0 mm 0,0 km/h (0 Bft) O-NO 67 0 min -3,3 C 0,0 km/h (0 Bft)
05.05.2016 03:15 -1,4 C -1,8 C 86 % 1023,3 hPa 0,0 mm 0,0 km/h (0 Bft) W-SW 247 0 min -3,4 C 0,0 km/h (0 Bft)
05.05.2016 03:20 -1,2 C -1,7 C 86 % 1023,3 hPa 0,0 mm 0,0 km/h (0 Bft) W 270 0 min -3,2 C 0,0 km/h (0 Bft)
05.05.2016 03:25 -1,3 C -1,8 C 86 % 1023,3 hPa 0,0 mm 0,0 km/h (0 Bft) SO 135 0 min -3,3 C 0,0 km/h (0 Bft)
05.05.2016 03:30 -1,4 C -1,8 C 86 % 1023,3 hPa 0,0 mm 0,0 km/h (0 Bft) O-NO 67 0 min -3,4 C 0,0 km/h (0 Bft)
05.05.2016 03:35 -1,6 C -2,0 C 86 % 1023,1 hPa 0,0 mm 0,0 km/h (0 Bft) W-SW 247 0 min -3,6 C 0,0 km/h (0 Bft)
05.05.2016 03:40 -1,7 C -2,1 C 85 % 1023,1 hPa 0,0 mm 0,0 km/h (0 Bft) NW 315 0 min -3,9 C 0,0 km/h (0 Bft)
05.05.2016 03:45 -1,8 C -2,2 C 85 % 1023,1 hPa 0,0 mm 0,0 km/h (0 Bft) W-SW 247 0 min -4,0 C 0,0 km/h (0 Bft)
05.05.2016 03:50 -1,8 C -2,2 C 85 % 1023,1 hPa 0,0 mm 0,0 km/h (0 Bft) S 180 0 min -4,0 C 0,0 km/h (0 Bft)
05.05.2016 03:55 -1,9 C -2,3 C 85 % 1022,8 hPa 0,0 mm 0,0 km/h (0 Bft) N-NO 22 0 min -4,1 C 0,0 km/h (0 Bft)
05.05.2016 04:00 -1,7 C -2,2 C 86 % 1022,8 hPa 0,0 mm 0,0 km/h (0 Bft) NW 315 0 min -3,7 C 0,0 km/h (0 Bft)
05.05.2016 04:05 -2,0 C -2,4 C 86 % 1022,8 hPa 0,0 mm 0,0 km/h (0 Bft) NW 315 0 min -4,0 C 0,0 km/h (0 Bft)
05.05.2016 04:10 -2,1 C -2,5 C 85 % 1022,8 hPa 0,0 mm 0,0 km/h (0 Bft) W-NW 292 0 min -4,3 C 0,0 km/h (0 Bft)
05.05.2016 04:15 -2,0 C -2,5 C 86 % 1022,8 hPa 0,0 mm 0,0 km/h (0 Bft) W 270 0 min -4,0 C 0,0 km/h (0 Bft)
05.05.2016 04:20 -2,2 C -2,7 C 86 % 1022,8 hPa 0,0 mm 0,0 km/h (0 Bft) W-NW 292 0 min -4,2 C 0,0 km/h (0 Bft)
05.05.2016 04:25 -2,3 C -2,7 C 86 % 1022,8 hPa 0,0 mm 0,0 km/h (0 Bft) SW 225 0 min -4,3 C 0,0 km/h (0 Bft)
05.05.2016 04:30 -2,3 C -2,7 C 85 % 1022,8 hPa 0,0 mm 0,0 km/h (0 Bft) W 270 0 min -4,5 C 0,0 km/h (0 Bft)
05.05.2016 04:35 -2,4 C -2,8 C 85 % 1022,9 hPa 0,0 mm 0,0 km/h (0 Bft) W 270 0 min -4,6 C 0,0 km/h (0 Bft)
05.05.2016 04:40 -2,3 C -2,8 C 85 % 1022,9 hPa 0,0 mm 0,0 km/h (0 Bft) W 270 0 min -4,5 C 0,0 km/h (0 Bft)
05.05.2016 04:45 -2,3 C -2,8 C 86 % 1022,9 hPa 0,0 mm 0,0 km/h (0 Bft) W-NW 292 0 min -4,3 C 0,0 km/h (0 Bft)
05.05.2016 04:50 -2,3 C -2,8 C 86 % 1022,9 hPa 0,0 mm 0,0 km/h (0 Bft) W-NW 292 0 min -4,3 C 0,0 km/h (0 Bft)
05.05.2016 04:55 -2,2 C -2,8 C 86 % 1022,8 hPa 0,0 mm 0,0 km/h (0 Bft) S 180 0 min -4,2 C 0,0 km/h (0 Bft)
05.05.2016 05:00 -2,2 C -2,7 C 86 % 1022,8 hPa 0,0 mm 0,0 km/h (0 Bft) NW 315 0 min -4,2 C 0,0 km/h (0 Bft)
05.05.2016 05:05 -2,4 C -2,8 C 86 % 1022,8 hPa 0,0 mm 0,0 km/h (0 Bft) NW 315 0 min -4,4 C 0,0 km/h (0 Bft)
05.05.2016 05:10 -2,4 C -2,8 C 86 % 1022,8 hPa 0,0 mm 0,0 km/h (0 Bft) W 270 0 min -4,4 C 0,0 km/h (0 Bft)
05.05.2016 05:15 -2,3 C -2,7 C 86 % 1022,9 hPa 0,0 mm 0,0 km/h (0 Bft) W 270 0 min -4,3 C 0,0 km/h (0 Bft)
05.05.2016 05:20 -2,5 C -2,9 C 86 % 1022,9 hPa 0,0 mm 0,0 km/h (0 Bft) W 270 0 min -4,5 C 0,0 km/h (0 Bft)
05.05.2016 05:25 -2,4 C -2,8 C 86 % 1022,9 hPa 0,0 mm 0,0 km/h (0 Bft) W 270 0 min -4,4 C 0,0 km/h (0 Bft)
05.05.2016 05:30 -2,4 C -2,9 C 86 % 1022,9 hPa 0,0 mm 0,0 km/h (0 Bft) W 270 0 min -4,4 C 0,0 km/h (0 Bft)
05.05.2016 05:35 -2,3 C -2,6 C 86 % 1022,9 hPa 0,0 mm 0,0 km/h (0 Bft) SO 135 0 min -4,3 C 0,0 km/h (0 Bft)
05.05.2016 05:40 -2,5 C -2,7 C 86 % 1022,9 hPa 0,0 mm 0,0 km/h (0 Bft) S 180 0 min -4,5 C 0,0 km/h (0 Bft)
05.05.2016 05:45 -2,7 C -2,8 C 86 % 1022,9 hPa 0,0 mm 0,0 km/h (0 Bft) NW 315 0 min -4,7 C 0,0 km/h (0 Bft)
05.05.2016 05:50 -2,7 C -2,9 C 86 % 1022,9 hPa 0,0 mm 0,0 km/h (0 Bft) NO 45 0 min -4,7 C 0,0 km/h (0 Bft)
05.05.2016 05:55 -2,7 C -3,0 C 86 % 1022,8 hPa 0,0 mm 0,0 km/h (0 Bft) W 270 0 min -4,7 C 0,0 km/h (0 Bft)
05.05.2016 06:00 -2,4 C -2,8 C 86 % 1022,8 hPa 0,0 mm 0,0 km/h (0 Bft) W 270 0 min -4,4 C 0,0 km/h (0 Bft)
05.05.2016 06:05 -2,5 C -2,9 C 87 % 1022,8 hPa 0,0 mm 0,0 km/h (0 Bft) W-NW 292 0 min -4,4 C 0,0 km/h (0 Bft)
05.05.2016 06:07 -2,2 C -2,7 C 87 % 1022,8 hPa 0,0 mm 0,0 km/h (0 Bft) S 180 0 min -4,1 C 0,0 km/h (0 Bft)
05.05.2016 06:10 -2,2 C -2,7 C 87 % 1022,8 hPa 0,0 mm 0,0 km/h (0 Bft) S 180 0 min -4,1 C 0,0 km/h (0 Bft)
05.05.2016 06:15 -2,4 C -2,8 C 87 % 1022,7 hPa 0,0 mm 0,0 km/h (0 Bft) NW 315 0 min -4,3 C 0,0 km/h (0 Bft)
05.05.2016 06:20 -2,3 C -2,6 C 87 % 1022,7 hPa 0,0 mm 0,0 km/h (0 Bft) W-SW 247 0 min -4,2 C 0,0 km/h (0 Bft)
05.05.2016 06:25 -2,1 C -2,2 C 83 % 1022,7 hPa 0,0 mm 0,0 km/h (0 Bft) W 270 0 min -4,6 C 0,0 km/h (0 Bft)
05.05.2016 06:30 -2,0 C -1,6 C 83 % 1022,7 hPa 0,0 mm 0,6 km/h (0 Bft) O-SO 112 0 min -4,5 C 0,0 km/h (0 Bft)
05.05.2016 06:35 -1,8 C 0,1 C 83 % 1022,4 hPa 0,0 mm 0,6 km/h (0 Bft) W 270 0 min -4,3 C 6,0 km/h (2 Bft)
05.05.2016 06:40 -1,7 C 1,4 C 84 % 1022,4 hPa 0,0 mm 0,0 km/h (0 Bft) W 270 5 min -4,0 C 0,0 km/h (0 Bft)
05.05.2016 06:45 -1,3 C 2,7 C 84 % 1022,4 hPa 0,0 mm 0,0 km/h (0 Bft) W 270 5 min -3,6 C 0,0 km/h (0 Bft)
05.05.2016 06:50 -1,2 C 3,8 C 84 % 1022,4 hPa 0,0 mm 0,0 km/h (0 Bft) NW 315 5 min -3,5 C 0,0 km/h (0 Bft)
05.05.2016 06:55 -1,0 C 4,8 C 84 % 1022,6 hPa 0,0 mm 0,0 km/h (0 Bft) W-SW 247 5 min -3,4 C 0,0 km/h (0 Bft)
05.05.2016 07:00 -0,9 C 5,5 C 84 % 1022,6 hPa 0,0 mm 0,0 km/h (0 Bft) S-SO 157 5 min -3,3 C 0,0 km/h (0 Bft)
05.05.2016 07:05 -0,3 C 6,7 C 84 % 1022,6 hPa 0,0 mm 0,0 km/h (0 Bft) O 90 5 min -2,7 C 0,0 km/h (0 Bft)
05.05.2016 07:10 -0,3 C 7,2 C 84 % 1022,6 hPa 0,0 mm 0,0 km/h (0 Bft) W 270 5 min -2,7 C 0,0 km/h (0 Bft)
05.05.2016 07:15 -0,3 C 8,3 C 84 % 1022,5 hPa 0,0 mm 0,0 km/h (0 Bft) SO 135 5 min -2,7 C 0,0 km/h (0 Bft)
05.05.2016 07:20 -0,3 C 8,3 C 84 % 1022,5 hPa 0,0 mm 0,0 km/h (0 Bft) SO 135 5 min -2,7 C 0,0 km/h (0 Bft)
05.05.2016 07:25 0,2 C 8,2 C 84 % 1022,5 hPa 0,0 mm 0,0 km/h (0 Bft) O 90 5 min -2,2 C 0,0 km/h (0 Bft)
05.05.2016 07:30 0,6 C 8,8 C 84 % 1022,5 hPa 0,0 mm 0,0 km/h (0 Bft) O-NO 67 5 min -1,8 C 0,0 km/h (0 Bft)
05.05.2016 07:35 1,5 C 10,0 C 84 % 1022,4 hPa 0,0 mm 0,0 km/h (0 Bft) O-NO 67 5 min -0,9 C 0,0 km/h (0 Bft)
05.05.2016 07:40 2,1 C 10,6 C 84 % 1022,4 hPa 0,0 mm 0,0 km/h (0 Bft) NO 45 5 min -0,3 C 0,0 km/h (0 Bft)
05.05.2016 07:45 3,3 C 11,3 C 83 % 1022,4 hPa 0,0 mm 0,6 km/h (0 Bft) NW 315 5 min 0,7 C 6,3 km/h (2 Bft)
05.05.2016 07:50 3,8 C 11,0 C 82 % 1022,4 hPa 0,0 mm 1,2 km/h (1 Bft) N-NO 22 5 min 1,0 C 0,0 km/h (0 Bft)
05.05.2016 07:55 4,5 C 11,6 C 81 % 1023,0 hPa 0,0 mm 1,2 km/h (1 Bft) NW 315 5 min 1,5 C 3,3 km/h (1 Bft)
05.05.2016 08:00 4,8 C 12,1 C 81 % 1023,0 hPa 0,0 mm 0,9 km/h (0 Bft) NW 315 5 min 1,8 C 3,0 km/h (1 Bft)
05.05.2016 08:05 5,0 C 12,5 C 79 % 1023,0 hPa 0,0 mm 2,1 km/h (1 Bft) NW 315 5 min 1,7 C 4,5 km/h (1 Bft)
05.05.2016 08:10 5,4 C 12,7 C 79 % 1023,0 hPa 0,0 mm 1,8 km/h (1 Bft) O-SO 112 5 min 2,1 C 0,0 km/h (0 Bft)
05.05.2016 08:15 6,0 C 14,0 C 78 % 1022,3 hPa 0,0 mm 0,9 km/h (0 Bft) O-NO 67 5 min 2,5 C 0,0 km/h (0 Bft)
05.05.2016 08:20 6,3 C 14,3 C 76 % 1022,3 hPa 0,0 mm 1,2 km/h (1 Bft) O-NO 67 5 min 2,4 C 4,8 km/h (1 Bft)
05.05.2016 08:25 6,4 C 13,6 C 75 % 1022,3 hPa 0,0 mm 3,6 km/h (1 Bft) O-NO 67 5 min 2,3 C 11,9 km/h (2 Bft)
05.05.2016 08:30 6,3 C 12,9 C 74 % 1022,3 hPa 0,0 mm 7,2 km/h (2 Bft) O-NO 67 5 min 2,0 C 15,5 km/h (3 Bft)
05.05.2016 08:35 6,2 C 11,8 C 73 % 1021,6 hPa 0,0 mm 10,1 km/h (2 Bft) O-NO 67 5 min 1,7 C 18,5 km/h (3 Bft)
05.05.2016 08:40 6,3 C 11,3 C 72 % 1021,6 hPa 0,0 mm 10,7 km/h (2 Bft) NO 45 5 min 1,6 C 6,3 km/h (2 Bft)
05.05.2016 08:45 6,4 C 10,8 C 70 % 1021,6 hPa 0,0 mm 11,9 km/h (2 Bft) NW 315 5 min 1,3 C 22,9 km/h (4 Bft)
05.05.2016 08:50 6,6 C 11,2 C 70 % 1021,6 hPa 0,0 mm 11,3 km/h (2 Bft) NO 45 5 min 1,5 C 12,8 km/h (3 Bft)
05.05.2016 08:55 6,7 C 11,5 C 70 % 1021,5 hPa 0,0 mm 10,4 km/h (2 Bft) O-NO 67 5 min 1,6 C 15,5 km/h (3 Bft)
05.05.2016 09:00 6,8 C 12,1 C 69 % 1021,5 hPa 0,0 mm 9,5 km/h (2 Bft) O 90 5 min 1,5 C 10,7 km/h (2 Bft)
05.05.2016 09:05 7,0 C 12,1 C 68 % 1021,5 hPa 0,0 mm 9,2 km/h (2 Bft) O-NO 67 5 min 1,5 C 6,0 km/h (2 Bft)
05.05.2016 09:07 7,2 C 12,4 C 67 % 1021,5 hPa 0,0 mm 9,8 km/h (2 Bft) NO 45 2 min 1,5 C 12,5 km/h (3 Bft)
05.05.2016 09:11 7,2 C 12,4 C 67 % 1021,5 hPa 0,0 mm 9,8 km/h (2 Bft) NO 45 4 min 1,5 C 12,5 km/h (3 Bft)
05.05.2016 09:15 7,3 C 12,2 C 66 % 1021,6 hPa 0,0 mm 10,4 km/h (2 Bft) NO 45 4 min 1,4 C 13,7 km/h (3 Bft)
05.05.2016 09:20 7,2 C 11,6 C 66 % 1021,6 hPa 0,0 mm 12,2 km/h (2 Bft) O-NO 67 5 min 1,3 C 11,9 km/h (2 Bft)
05.05.2016 09:25 7,5 C 11,9 C 66 % 1021,6 hPa 0,0 mm 11,6 km/h (2 Bft) N-NW 337 5 min 1,6 C 12,5 km/h (3 Bft)
05.05.2016 09:30 7,6 C 11,9 C 66 % 1021,6 hPa 0,0 mm 11,6 km/h (2 Bft) NO 45 5 min 1,7 C 12,8 km/h (3 Bft)
05.05.2016 09:35 7,6 C 11,7 C 64 % 1021,3 hPa 0,0 mm 13,4 km/h (3 Bft) NO 45 5 min 1,2 C 25,3 km/h (4 Bft)
05.05.2016 09:40 7,7 C 11,6 C 64 % 1021,3 hPa 0,0 mm 14,9 km/h (3 Bft) NO 45 5 min 1,3 C 20,6 km/h (4 Bft)
05.05.2016 09:45 7,8 C 11,2 C 64 % 1021,3 hPa 0,0 mm 14,9 km/h (3 Bft) NO 45 0 min 1,4 C 32,2 km/h (5 Bft)
05.05.2016 09:50 8,0 C 11,7 C 63 % 1021,3 hPa 0,0 mm 13,7 km/h (3 Bft) O-SO 112 0 min 1,4 C 17,0 km/h (3 Bft)
05.05.2016 09:55 8,1 C 11,9 C 63 % 1021,8 hPa 0,0 mm 12,5 km/h (3 Bft) O-NO 67 5 min 1,5 C 15,2 km/h (3 Bft)
05.05.2016 10:00 8,2 C 12,0 C 63 % 1021,8 hPa 0,0 mm 12,8 km/h (3 Bft) O-NO 67 5 min 1,6 C 12,5 km/h (3 Bft)
05.05.2016 10:05 8,4 C 12,2 C 62 % 1021,8 hPa 0,0 mm 13,7 km/h (3 Bft) N-NO 22 5 min 1,6 C 23,5 km/h (4 Bft)
05.05.2016 10:10 8,4 C 12,0 C 61 % 1021,8 hPa 0,0 mm 15,2 km/h (3 Bft) O-NO 67 5 min 1,3 C 12,5 km/h (3 Bft)
05.05.2016 10:15 8,7 C 12,1 C 61 % 1021,9 hPa 0,0 mm 14,3 km/h (3 Bft) NO 45 0 min 1,6 C 4,8 km/h (1 Bft)
05.05.2016 10:20 8,9 C 13,3 C 61 % 1021,9 hPa 0,0 mm 10,7 km/h (2 Bft) NO 45 5 min 1,8 C 17,0 km/h (3 Bft)
05.05.2016 10:25 9,3 C 14,0 C 62 % 1021,9 hPa 0,0 mm 9,2 km/h (2 Bft) O-NO 67 5 min 2,4 C 12,2 km/h (2 Bft)
05.05.2016 10:30 9,5 C 14,3 C 61 % 1021,9 hPa 0,0 mm 9,8 km/h (2 Bft) O-NO 67 5 min 2,4 C 14,3 km/h (3 Bft)
05.05.2016 10:35 9,4 C 14,1 C 60 % 1022,6 hPa 0,0 mm 11,3 km/h (2 Bft) O-NO 67 5 min 2,0 C 8,9 km/h (2 Bft)
05.05.2016 10:40 9,6 C 14,2 C 61 % 1022,6 hPa 0,0 mm 11,3 km/h (2 Bft) N-NO 22 5 min 2,5 C 7,2 km/h (2 Bft)
05.05.2016 10:45 10,1 C 14,6 C 60 % 1022,6 hPa 0,0 mm 10,1 km/h (2 Bft) SO 135 5 min 2,7 C 14,3 km/h (3 Bft)
05.05.2016 10:50 10,1 C 14,6 C 59 % 1022,6 hPa 0,0 mm 10,7 km/h (2 Bft) NO 45 5 min 2,5 C 13,4 km/h (3 Bft)
05.05.2016 10:55 10,1 C 14,6 C 59 % 1022,8 hPa 0,0 mm 11,6 km/h (2 Bft) O 90 5 min 2,5 C 15,2 km/h (3 Bft)
05.05.2016 11:00 10,1 C 14,7 C 58 % 1022,8 hPa 0,0 mm 11,6 km/h (2 Bft) O 90 5 min 2,2 C 18,2 km/h (3 Bft)
05.05.2016 11:05 10,4 C 15,0 C 58 % 1022,8 hPa 0,0 mm 10,4 km/h (2 Bft) O 90 5 min 2,5 C 10,1 km/h (2 Bft)
05.05.2016 11:10 10,7 C 15,3 C 58 % 1022,8 hPa 0,0 mm 9,8 km/h (2 Bft) O-NO 67 0 min 2,8 C 14,3 km/h (3 Bft)
05.05.2016 11:15 10,8 C 14,9 C 57 % 1023,6 hPa 0,0 mm 12,8 km/h (3 Bft) O 90 5 min 2,6 C 16,4 km/h (3 Bft)
05.05.2016 11:20 10,8 C 14,7 C 57 % 1023,6 hPa 0,0 mm 13,7 km/h (3 Bft) S-SO 157 0 min 2,6 C 14,9 km/h (3 Bft)
05.05.2016 11:25 11,0 C 15,1 C 56 % 1023,6 hPa 0,0 mm 11,0 km/h (2 Bft) NO 45 5 min 2,6 C 20,6 km/h (4 Bft)
05.05.2016 11:30 11,0 C 14,9 C 56 % 1023,6 hPa 0,0 mm 12,2 km/h (2 Bft) O-NO 67 5 min 2,6 C 20,6 km/h (4 Bft)
05.05.2016 11:35 11,0 C 14,7 C 56 % 1023,1 hPa 0,0 mm 14,6 km/h (3 Bft) NO 45 0 min 2,6 C 23,5 km/h (4 Bft)
05.05.2016 11:40 11,0 C 14,6 C 56 % 1023,1 hPa 0,0 mm 14,6 km/h (3 Bft) NO 45 0 min 2,6 C 24,1 km/h (4 Bft)
05.05.2016 11:45 11,3 C 14,8 C 56 % 1023,1 hPa 0,0 mm 13,7 km/h (3 Bft) O 90 0 min 2,8 C 12,2 km/h (2 Bft)
05.05.2016 11:50 11,3 C 14,9 C 56 % 1023,1 hPa 0,0 mm 13,7 km/h (3 Bft) O-SO 112 0 min 2,8 C 16,4 km/h (3 Bft)
05.05.2016 11:55 11,5 C 15,4 C 56 % 1023,1 hPa 0,0 mm 11,9 km/h (2 Bft) NO 45 0 min 3,0 C 19,1 km/h (3 Bft)
05.05.2016 12:00 11,6 C 15,4 C 56 % 1023,1 hPa 0,0 mm 11,0 km/h (2 Bft) N-NO 22 0 min 3,1 C 21,5 km/h (4 Bft)
05.05.2016 12:05 11,8 C 15,6 C 56 % 1023,1 hPa 0,0 mm 11,6 km/h (2 Bft) N-NO 22 0 min 3,3 C 13,7 km/h (3 Bft)
05.05.2016 12:10 12,0 C 15,9 C 56 % 1023,1 hPa 0,0 mm 11,3 km/h (2 Bft) S-SO 157 0 min 3,5 C 11,3 km/h (2 Bft)
05.05.2016 12:12 12,0 C 15,9 C 56 % 1023,1 hPa 0,0 mm 11,3 km/h (2 Bft) S-SO 157 0 min 3,5 C 11,3 km/h (2 Bft)
05.05.2016 12:15 12,2 C 16,0 C 56 % 1023,2 hPa 0,0 mm 11,9 km/h (2 Bft) O-SO 112 3 min 3,7 C 8,0 km/h (2 Bft)
05.05.2016 12:20 12,3 C 16,0 C 55 % 1023,2 hPa 0,0 mm 12,8 km/h (3 Bft) N-NO 22 5 min 3,5 C 31,9 km/h (5 Bft)
05.05.2016 12:25 12,1 C 15,5 C 55 % 1023,2 hPa 0,0 mm 14,0 km/h (3 Bft) N 360 0 min 3,3 C 11,3 km/h (2 Bft)
05.05.2016 12:30 12,1 C 15,4 C 55 % 1023,2 hPa 0,0 mm 16,7 km/h (3 Bft) O-NO 67 0 min 3,3 C 31,6 km/h (5 Bft)
05.05.2016 12:35 12,2 C 15,1 C 55 % 1023,2 hPa 0,0 mm 17,0 km/h (3 Bft) O-NO 67 0 min 3,4 C 21,2 km/h (4 Bft)
05.05.2016 12:40 12,3 C 14,9 C 55 % 1023,2 hPa 0,0 mm 16,4 km/h (3 Bft) O-SO 112 0 min 3,5 C 16,4 km/h (3 Bft)
05.05.2016 12:45 12,5 C 15,0 C 55 % 1023,2 hPa 0,0 mm 13,4 km/h (3 Bft) O-NO 67 0 min 3,7 C 17,3 km/h (3 Bft)
05.05.2016 12:50 12,6 C 14,6 C 55 % 1023,2 hPa 0,0 mm 14,6 km/h (3 Bft) O-NO 67 0 min 3,8 C 16,1 km/h (3 Bft)
05.05.2016 12:55 12,7 C 14,4 C 54 % 1023,4 hPa 0,0 mm 17,0 km/h (3 Bft) N-NW 337 0 min 3,6 C 15,8 km/h (3 Bft)
05.05.2016 13:00 12,7 C 14,2 C 54 % 1023,4 hPa 0,0 mm 17,0 km/h (3 Bft) O-NO 67 0 min 3,6 C 20,3 km/h (4 Bft)
05.05.2016 13:05 12,8 C 14,3 C 54 % 1023,4 hPa 0,0 mm 15,5 km/h (3 Bft) O-NO 67 0 min 3,7 C 32,8 km/h (5 Bft)
05.05.2016 13:10 13,0 C 15,4 C 53 % 1023,4 hPa 0,0 mm 12,5 km/h (3 Bft) O-NO 67 0 min 3,6 C 19,4 km/h (3 Bft)
05.05.2016 13:15 13,3 C 16,2 C 53 % 1023,6 hPa 0,0 mm 11,9 km/h (2 Bft) NO 45 0 min 3,9 C 17,3 km/h (3 Bft)
05.05.2016 13:20 13,2 C 16,2 C 52 % 1023,6 hPa 0,0 mm 13,4 km/h (3 Bft) N-NW 337 0 min 3,6 C 14,3 km/h (3 Bft)
05.05.2016 13:25 13,3 C 16,6 C 52 % 1023,6 hPa 0,0 mm 14,0 km/h (3 Bft) N-NW 337 0 min 3,7 C 16,1 km/h (3 Bft)
05.05.2016 13:30 13,6 C 16,9 C 52 % 1023,6 hPa 0,0 mm 14,0 km/h (3 Bft) NO 45 0 min 3,9 C 27,1 km/h (4 Bft)
05.05.2016 13:35 13,7 C 17,1 C 53 % 1023,4 hPa 0,0 mm 13,1 km/h (3 Bft) N-NO 22 0 min 4,3 C 14,9 km/h (3 Bft)
05.05.2016 13:40 13,8 C 17,2 C 52 % 1023,4 hPa 0,0 mm 14,3 km/h (3 Bft) O-NO 67 0 min 4,1 C 22,1 km/h (4 Bft)
05.05.2016 13:45 13,6 C 16,7 C 51 % 1023,4 hPa 0,0 mm 15,8 km/h (3 Bft) NO 45 0 min 3,7 C 33,7 km/h (5 Bft)
05.05.2016 13:50 13,6 C 16,6 C 52 % 1023,4 hPa 0,0 mm 16,1 km/h (3 Bft) N-NW 337 0 min 3,9 C 14,6 km/h (3 Bft)
05.05.2016 13:55 14,0 C 17,2 C 52 % 1022,4 hPa 0,0 mm 14,0 km/h (3 Bft) O-NO 67 0 min 4,3 C 20,6 km/h (4 Bft)
05.05.2016 14:00 14,1 C 17,4 C 52 % 1022,4 hPa 0,0 mm 12,5 km/h (3 Bft) NO 45 0 min 4,4 C 17,6 km/h (3 Bft)
05.05.2016 14:05 14,1 C 17,5 C 52 % 1022,4 hPa 0,0 mm 12,2 km/h (2 Bft) O-NO 67 0 min 4,4 C 13,4 km/h (3 Bft)
05.05.2016 14:10 14,3 C 17,6 C 52 % 1022,4 hPa 0,0 mm 14,0 km/h (3 Bft) N-NO 22 0 min 4,6 C 17,3 km/h (3 Bft)
05.05.2016 14:15 14,2 C 17,4 C 51 % 1021,8 hPa 0,0 mm 15,2 km/h (3 Bft) N-NO 22 0 min 4,2 C 11,9 km/h (2 Bft)
05.05.2016 14:20 14,3 C 17,5 C 52 % 1021,8 hPa 0,0 mm 14,0 km/h (3 Bft) NO 45 0 min 4,6 C 17,0 km/h (3 Bft)
05.05.2016 14:25 14,6 C 18,0 C 52 % 1021,8 hPa 0,0 mm 11,9 km/h (2 Bft) N-NO 22 0 min 4,9 C 12,2 km/h (2 Bft)
05.05.2016 14:30 14,5 C 17,7 C 51 % 1021,8 hPa 0,0 mm 15,2 km/h (3 Bft) NO 45 0 min 4,5 C 28,6 km/h (4 Bft)
05.05.2016 14:35 14,6 C 17,7 C 52 % 1021,2 hPa 0,0 mm 15,2 km/h (3 Bft) O-NO 67 0 min 4,9 C 14,3 km/h (3 Bft)
05.05.2016 14:40 14,6 C 17,7 C 51 % 1021,2 hPa 0,0 mm 14,9 km/h (3 Bft) O 90 0 min 4,6 C 23,8 km/h (4 Bft)
05.05.2016 14:45 14,6 C 17,6 C 51 % 1021,2 hPa 0,0 mm 15,2 km/h (3 Bft) O 90 0 min 4,6 C 10,7 km/h (2 Bft)
05.05.2016 14:50 14,8 C 17,9 C 52 % 1021,2 hPa 0,0 mm 14,9 km/h (3 Bft) O-NO 67 0 min 5,0 C 9,5 km/h (2 Bft)
05.05.2016 14:55 14,9 C 18,1 C 51 % 1020,9 hPa 0,0 mm 14,6 km/h (3 Bft) O-NO 67 0 min 4,9 C 19,7 km/h (3 Bft)
05.05.2016 15:00 14,9 C 18,1 C 51 % 1020,9 hPa 0,0 mm 14,6 km/h (3 Bft) NO 45 0 min 4,9 C 20,6 km/h (4 Bft)
05.05.2016 15:05 14,8 C 17,9 C 52 % 1020,9 hPa 0,0 mm 15,8 km/h (3 Bft) NO 45 0 min 5,0 C 37,3 km/h (5 Bft)
05.05.2016 15:10 14,9 C 17,9 C 52 % 1020,9 hPa 0,0 mm 16,7 km/h (3 Bft) O-NO 67 0 min 5,1 C 14,9 km/h (3 Bft)
05.05.2016 15:12 15,1 C 18,1 C 52 % 1020,9 hPa 0,0 mm 14,9 km/h (3 Bft) O-NO 67 0 min 5,3 C 12,2 km/h (2 Bft)
05.05.2016 15:13 15,1 C 18,1 C 52 % 1020,9 hPa 0,0 mm 14,9 km/h (3 Bft) O-NO 67 0 min 5,3 C 12,2 km/h (2 Bft)
05.05.2016 15:15 15,1 C 18,1 C 52 % 1020,9 hPa 0,0 mm 14,9 km/h (3 Bft) O-NO 67 0 min 5,3 C 12,2 km/h (2 Bft)
05.05.2016 15:20 15,1 C 18,1 C 51 % 1020,9 hPa 0,0 mm 14,6 km/h (3 Bft) NO 45 0 min 5,0 C 20,9 km/h (4 Bft)
05.05.2016 15:25 15,0 C 18,2 C 51 % 1020,9 hPa 0,0 mm 13,4 km/h (3 Bft) O-SO 112 0 min 4,9 C 8,3 km/h (2 Bft)
05.05.2016 15:30 15,3 C 18,4 C 51 % 1020,9 hPa 0,0 mm 13,4 km/h (3 Bft) O-NO 67 0 min 5,2 C 12,8 km/h (3 Bft)
05.05.2016 15:35 15,1 C 18,3 C 50 % 1020,7 hPa 0,0 mm 13,4 km/h (3 Bft) NO 45 0 min 4,8 C 10,7 km/h (2 Bft)
05.05.2016 15:40 15,0 C 18,2 C 50 % 1020,7 hPa 0,0 mm 15,2 km/h (3 Bft) N-NO 22 0 min 4,7 C 16,4 km/h (3 Bft)
05.05.2016 15:45 15,0 C 18,1 C 50 % 1020,7 hPa 0,0 mm 13,7 km/h (3 Bft) NO 45 0 min 4,7 C 13,1 km/h (3 Bft)
05.05.2016 15:50 14,9 C 18,1 C 50 % 1020,7 hPa 0,0 mm 14,3 km/h (3 Bft) O-NO 67 0 min 4,6 C 15,5 km/h (3 Bft)
05.05.2016 15:55 14,9 C 18,4 C 51 % 1020,4 hPa 0,0 mm 14,0 km/h (3 Bft) N-NO 22 0 min 4,9 C 22,4 km/h (4 Bft)
05.05.2016 16:00 15,0 C 18,4 C 50 % 1020,4 hPa 0,0 mm 13,7 km/h (3 Bft) N-NO 22 0 min 4,7 C 23,2 km/h (4 Bft)
05.05.2016 16:05 15,0 C 18,3 C 51 % 1020,4 hPa 0,0 mm 14,9 km/h (3 Bft) N-NW 337 0 min 4,9 C 20,0 km/h (4 Bft)
05.05.2016 16:10 15,0 C 18,3 C 51 % 1020,4 hPa 0,0 mm 14,6 km/h (3 Bft) O-NO 67 0 min 4,9 C 18,2 km/h (3 Bft)
05.05.2016 16:15 14,9 C 18,4 C 51 % 1020,2 hPa 0,0 mm 13,1 km/h (3 Bft) NO 45 5 min 4,9 C 17,9 km/h (3 Bft)
05.05.2016 16:20 14,8 C 18,6 C 51 % 1020,2 hPa 0,0 mm 12,5 km/h (3 Bft) N-NO 22 5 min 4,8 C 18,8 km/h (3 Bft)
05.05.2016 16:25 14,8 C 18,5 C 52 % 1020,2 hPa 0,0 mm 13,7 km/h (3 Bft) NO 45 5 min 5,0 C 17,0 km/h (3 Bft)
05.05.2016 16:30 14,8 C 18,5 C 52 % 1020,2 hPa 0,0 mm 13,1 km/h (3 Bft) O-NO 67 5 min 5,0 C 15,5 km/h (3 Bft)
05.05.2016 16:35 14,8 C 18,5 C 52 % 1019,9 hPa 0,0 mm 15,5 km/h (3 Bft) O-NO 67 5 min 5,0 C 17,3 km/h (3 Bft)
05.05.2016 16:40 14,7 C 18,3 C 52 % 1019,9 hPa 0,0 mm 17,3 km/h (3 Bft) NO 45 5 min 5,0 C 14,6 km/h (3 Bft)
05.05.2016 16:45 14,8 C 18,0 C 52 % 1019,9 hPa 0,0 mm 17,3 km/h (3 Bft) NO 45 5 min 5,0 C 25,0 km/h (4 Bft)
05.05.2016 16:50 14,7 C 17,3 C 53 % 1019,9 hPa 0,0 mm 16,4 km/h (3 Bft) O-NO 67 0 min 5,2 C 21,8 km/h (4 Bft)
05.05.2016 16:55 14,7 C 16,4 C 53 % 1019,8 hPa 0,0 mm 16,1 km/h (3 Bft) O-NO 67 0 min 5,2 C 18,5 km/h (3 Bft)
05.05.2016 17:00 14,7 C 16,2 C 53 % 1019,8 hPa 0,0 mm 15,8 km/h (3 Bft) NO 45 0 min 5,2 C 12,2 km/h (2 Bft)
05.05.2016 17:05 14,7 C 16,1 C 54 % 1019,8 hPa 0,0 mm 14,9 km/h (3 Bft) O-NO 67 0 min 5,5 C 24,7 km/h (4 Bft)
05.05.2016 17:10 14,7 C 16,0 C 53 % 1019,8 hPa 0,0 mm 16,7 km/h (3 Bft) O-NO 67 0 min 5,2 C 16,1 km/h (3 Bft)
05.05.2016 17:15 14,5 C 15,7 C 53 % 1019,8 hPa 0,0 mm 18,5 km/h (3 Bft) O-NO 67 0 min 5,0 C 19,7 km/h (3 Bft)
05.05.2016 17:20 14,6 C 15,7 C 54 % 1019,8 hPa 0,0 mm 14,3 km/h (3 Bft) NO 45 0 min 5,4 C 10,4 km/h (2 Bft)
05.05.2016 17:25 14,8 C 15,9 C 54 % 1019,8 hPa 0,0 mm 11,3 km/h (2 Bft) O-NO 67 0 min 5,6 C 22,7 km/h (4 Bft)
05.05.2016 17:30 14,8 C 15,9 C 54 % 1019,8 hPa 0,0 mm 12,2 km/h (2 Bft) NO 45 0 min 5,6 C 16,1 km/h (3 Bft)
05.05.2016 17:35 14,8 C 16,1 C 54 % 1019,9 hPa 0,0 mm 12,2 km/h (2 Bft) O-NO 67 0 min 5,6 C 20,3 km/h (4 Bft)
05.05.2016 17:40 14,8 C 16,1 C 55 % 1019,9 hPa 0,0 mm 11,6 km/h (2 Bft) W-SW 247 0 min 5,8 C 34,6 km/h (5 Bft)
05.05.2016 17:45 14,7 C 15,7 C 55 % 1019,9 hPa 0,0 mm 14,3 km/h (3 Bft) O-NO 67 0 min 5,8 C 35,5 km/h (5 Bft)
05.05.2016 17:50 14,6 C 15,6 C 54 % 1019,9 hPa 0,0 mm 17,3 km/h (3 Bft) NO 45 0 min 5,4 C 18,5 km/h (3 Bft)
05.05.2016 17:55 14,5 C 15,5 C 54 % 1019,8 hPa 0,0 mm 17,6 km/h (3 Bft) O-SO 112 0 min 5,3 C 21,8 km/h (4 Bft)
05.05.2016 18:00 14,5 C 15,8 C 55 % 1019,8 hPa 0,0 mm 14,9 km/h (3 Bft) O-NO 67 0 min 5,6 C 14,3 km/h (3 Bft)
05.05.2016 18:05 14,6 C 15,6 C 55 % 1019,8 hPa 0,0 mm 11,9 km/h (2 Bft) O-NO 67 0 min 5,7 C 10,4 km/h (2 Bft)
05.05.2016 18:10 14,6 C 15,6 C 55 % 1019,8 hPa 0,0 mm 11,0 km/h (2 Bft) N-NO 22 0 min 5,7 C 13,7 km/h (3 Bft)
05.05.2016 18:12 14,6 C 15,7 C 54 % 1019,5 hPa 0,0 mm 13,4 km/h (3 Bft) O-NO 67 0 min 5,4 C 19,1 km/h (3 Bft)
05.05.2016 18:14 14,6 C 15,7 C 54 % 1019,5 hPa 0,0 mm 13,4 km/h (3 Bft) O-NO 67 0 min 5,4 C 19,1 km/h (3 Bft)
05.05.2016 18:20 14,5 C 16,0 C 55 % 1019,5 hPa 0,0 mm 14,6 km/h (3 Bft) NO 45 0 min 5,6 C 10,7 km/h (2 Bft)
05.05.2016 18:25 14,5 C 16,3 C 55 % 1019,5 hPa 0,0 mm 14,3 km/h (3 Bft) O-NO 67 0 min 5,6 C 11,9 km/h (2 Bft)
05.05.2016 18:30 14,4 C 15,9 C 55 % 1019,5 hPa 0,0 mm 13,4 km/h (3 Bft) NO 45 0 min 5,5 C 20,0 km/h (4 Bft)
05.05.2016 18:35 14,3 C 15,6 C 55 % 1019,6 hPa 0,0 mm 12,8 km/h (3 Bft) O-NO 67 0 min 5,4 C 8,0 km/h (2 Bft)
05.05.2016 18:40 14,3 C 15,7 C 55 % 1019,6 hPa 0,0 mm 13,1 km/h (3 Bft) N-NW 337 0 min 5,4 C 10,7 km/h (2 Bft)
05.05.2016 18:45 14,2 C 15,9 C 55 % 1019,6 hPa 0,0 mm 13,4 km/h (3 Bft) W-SW 247 0 min 5,3 C 6,9 km/h (2 Bft)
05.05.2016 18:50 14,2 C 16,1 C 56 % 1019,6 hPa 0,0 mm 13,1 km/h (3 Bft) NO 45 0 min 5,6 C 11,9 km/h (2 Bft)
05.05.2016 18:55 14,3 C 16,0 C 56 % 1019,4 hPa 0,0 mm 11,9 km/h (2 Bft) O 90 0 min 5,6 C 16,4 km/h (3 Bft)
05.05.2016 19:00 14,2 C 15,7 C 56 % 1019,4 hPa 0,0 mm 12,2 km/h (2 Bft) O-NO 67 0 min 5,6 C 12,8 km/h (3 Bft)
05.05.2016 19:05 14,1 C 15,3 C 56 % 1019,4 hPa 0,0 mm 13,7 km/h (3 Bft) N 360 0 min 5,5 C 26,8 km/h (4 Bft)
05.05.2016 19:10 13,9 C 15,2 C 56 % 1019,4 hPa 0,0 mm 14,0 km/h (3 Bft) N-NO 22 0 min 5,3 C 12,5 km/h (3 Bft)
05.05.2016 19:15 13,9 C 15,7 C 56 % 1019,5 hPa 0,0 mm 11,6 km/h (2 Bft) NO 45 0 min 5,3 C 13,1 km/h (3 Bft)
05.05.2016 19:20 13,8 C 15,9 C 57 % 1019,5 hPa 0,0 mm 10,7 km/h (2 Bft) NO 45 0 min 5,4 C 13,1 km/h (3 Bft)
05.05.2016 19:25 13,6 C 16,1 C 57 % 1019,5 hPa 0,0 mm 11,6 km/h (2 Bft) O-NO 67 5 min 5,2 C 21,5 km/h (4 Bft)
05.05.2016 19:30 13,6 C 16,1 C 57 % 1019,5 hPa 0,0 mm 9,8 km/h (2 Bft) O-NO 67 5 min 5,2 C 6,3 km/h (2 Bft)
05.05.2016 19:35 13,3 C 16,1 C 58 % 1019,3 hPa 0,0 mm 8,3 km/h (2 Bft) O-SO 112 5 min 5,2 C 8,0 km/h (2 Bft)
05.05.2016 19:40 13,3 C 16,2 C 58 % 1019,3 hPa 0,0 mm 6,0 km/h (2 Bft) NO 45 5 min 5,2 C 12,2 km/h (2 Bft)
05.05.2016 19:45 13,0 C 15,9 C 58 % 1019,3 hPa 0,0 mm 5,4 km/h (1 Bft) N-NW 337 5 min 4,9 C 0,0 km/h (0 Bft)
05.05.2016 19:50 12,8 C 15,9 C 59 % 1019,3 hPa 0,0 mm 4,2 km/h (1 Bft) O 90 5 min 5,0 C 8,0 km/h (2 Bft)
05.05.2016 19:55 12,7 C 15,7 C 59 % 1019,3 hPa 0,0 mm 2,1 km/h (1 Bft) O-NO 67 5 min 4,9 C 3,0 km/h (1 Bft)
05.05.2016 20:00 12,5 C 15,5 C 59 % 1019,3 hPa 0,0 mm 2,7 km/h (1 Bft) SO 135 5 min 4,7 C 5,1 km/h (1 Bft)
05.05.2016 20:05 12,3 C 15,1 C 60 % 1019,3 hPa 0,0 mm 1,5 km/h (1 Bft) S-SO 157 5 min 4,8 C 0,0 km/h (0 Bft)
05.05.2016 20:10 11,9 C 14,8 C 61 % 1019,3 hPa 0,0 mm 0,9 km/h (0 Bft) O-NO 67 5 min 4,6 C 4,2 km/h (1 Bft)
05.05.2016 20:15 11,5 C 14,2 C 62 % 1019,3 hPa 0,0 mm 0,6 km/h (0 Bft) S 180 5 min 4,5 C 0,0 km/h (0 Bft)
05.05.2016 20:20 11,3 C 13,8 C 63 % 1019,3 hPa 0,0 mm 0,6 km/h (0 Bft) S-SO 157 5 min 4,5 C 0,0 km/h (0 Bft)
05.05.2016 20:25 11,0 C 13,0 C 64 % 1019,3 hPa 0,0 mm 0,0 km/h (0 Bft) O-SO 112 0 min 4,5 C 0,0 km/h (0 Bft)
05.05.2016 20:30 10,8 C 12,2 C 66 % 1019,3 hPa 0,0 mm 0,0 km/h (0 Bft) S-SO 157 0 min 4,7 C 0,0 km/h (0 Bft)
05.05.2016 20:35 10,5 C 11,0 C 67 % 1019,2 hPa 0,0 mm 0,3 km/h (0 Bft) SO 135 0 min 4,6 C 3,0 km/h (1 Bft)
05.05.2016 20:40 10,3 C 10,4 C 68 % 1019,2 hPa 0,0 mm 0,6 km/h (0 Bft) SO 135 0 min 4,7 C 6,3 km/h (2 Bft)
05.05.2016 20:45 10,0 C 9,9 C 68 % 1019,2 hPa 0,0 mm 0,6 km/h (0 Bft) O-NO 67 0 min 4,4 C 0,0 km/h (0 Bft)
05.05.2016 20:50 9,9 C 9,7 C 69 % 1019,2 hPa 0,0 mm 1,2 km/h (1 Bft) S-SW 202 0 min 4,5 C 5,7 km/h (1 Bft)
05.05.2016 20:55 9,7 C 9,5 C 70 % 1019,2 hPa 0,0 mm 1,8 km/h (1 Bft) O-SO 112 0 min 4,5 C 6,6 km/h (2 Bft)
05.05.2016 21:00 9,4 C 9,2 C 70 % 1019,2 hPa 0,0 mm 1,2 km/h (1 Bft) O-NO 67 0 min 4,2 C 0,0 km/h (0 Bft)
05.05.2016 21:05 9,4 C 9,1 C 71 % 1019,2 hPa 0,0 mm 0,3 km/h (0 Bft) N-NW 337 0 min 4,4 C 0,0 km/h (0 Bft)
05.05.2016 21:10 9,3 C 8,9 C 72 % 1019,2 hPa 0,0 mm 0,3 km/h (0 Bft) SO 135 0 min 4,5 C 0,0 km/h (0 Bft)
05.05.2016 21:12 9,3 C 8,9 C 72 % 1019,2 hPa 0,0 mm 0,6 km/h (0 Bft) S 180 0 min 4,5 C 3,9 km/h (1 Bft)
05.05.2016 21:15 9,3 C 8,9 C 72 % 1019,2 hPa 0,0 mm 0,6 km/h (0 Bft) S 180 0 min 4,5 C 3,9 km/h (1 Bft)
05.05.2016 21:20 9,3 C 8,9 C 73 % 1019,2 hPa 0,0 mm 0,9 km/h (0 Bft) SO 135 0 min 4,7 C 3,0 km/h (1 Bft)
05.05.2016 21:25 9,1 C 8,8 C 73 % 1019,2 hPa 0,0 mm 0,9 km/h (0 Bft) S-SO 157 0 min 4,5 C 0,0 km/h (0 Bft)
05.05.2016 21:30 9,0 C 8,7 C 73 % 1019,2 hPa 0,0 mm 0,3 km/h (0 Bft) SO 135 0 min 4,4 C 0,0 km/h (0 Bft)
05.05.2016 21:35 8,9 C 8,5 C 74 % 1019,1 hPa 0,0 mm 0,0 km/h (0 Bft) O-SO 112 0 min 4,5 C 0,0 km/h (0 Bft)
05.05.2016 21:40 8,9 C 8,5 C 75 % 1019,1 hPa 0,0 mm 0,0 km/h (0 Bft) S-SO 157 0 min 4,7 C 0,0 km/h (0 Bft)
05.05.2016 21:45 8,9 C 8,4 C 75 % 1019,1 hPa 0,0 mm 0,0 km/h (0 Bft) SO 135 0 min 4,7 C 0,0 km/h (0 Bft)
05.05.2016 21:50 8,8 C 8,3 C 76 % 1019,1 hPa 0,0 mm 0,3 km/h (0 Bft) SO 135 0 min 4,8 C 3,0 km/h (1 Bft)
05.05.2016 21:55 8,7 C 8,3 C 76 % 1018,9 hPa 0,0 mm 1,2 km/h (1 Bft) S-SO 157 0 min 4,7 C 0,0 km/h (0 Bft)
05.05.2016 22:00 8,5 C 8,2 C 76 % 1018,9 hPa 0,0 mm 1,2 km/h (1 Bft) O-SO 112 0 min 4,5 C 0,0 km/h (0 Bft)
05.05.2016 22:05 8,4 C 8,0 C 77 % 1018,9 hPa 0,0 mm 0,0 km/h (0 Bft) S-SO 157 0 min 4,6 C 0,0 km/h (0 Bft)
05.05.2016 22:10 8,4 C 8,0 C 78 % 1018,9 hPa 0,0 mm 0,6 km/h (0 Bft) SO 135 0 min 4,8 C 0,0 km/h (0 Bft)
05.05.2016 22:15 7,2 C 7,1 C 76 % 1018,9 hPa 0,0 mm 0,3 km/h (0 Bft) W 270 0 min 3,3 C 0,0 km/h (0 Bft)
05.05.2016 22:20 6,8 C 6,6 C 76 % 1018,9 hPa 0,0 mm 0,0 km/h (0 Bft) O-SO 112 0 min 2,9 C 0,0 km/h (0 Bft)
05.05.2016 22:25 6,8 C 6,5 C 79 % 1018,9 hPa 0,0 mm 0,0 km/h (0 Bft) SO 135 0 min 3,4 C 4,8 km/h (1 Bft)
05.05.2016 22:30 6,7 C 6,6 C 74 % 1018,9 hPa 0,0 mm 0,3 km/h (0 Bft) S-SO 157 0 min 2,4 C 0,0 km/h (0 Bft)
05.05.2016 22:35 6,5 C 6,3 C 80 % 1018,9 hPa 0,0 mm 0,6 km/h (0 Bft) O 90 0 min 3,3 C 3,0 km/h (1 Bft)
05.05.2016 22:40 6,2 C 6,0 C 80 % 1018,9 hPa 0,0 mm 0,3 km/h (0 Bft) O-NO 67 0 min 3,0 C 0,0 km/h (0 Bft)
05.05.2016 22:45 6,4 C 6,0 C 81 % 1018,9 hPa 0,0 mm 0,3 km/h (0 Bft) O-SO 112 0 min 3,4 C 0,0 km/h (0 Bft)
05.05.2016 22:50 6,3 C 5,9 C 82 % 1018,9 hPa 0,0 mm 0,0 km/h (0 Bft) S 180 0 min 3,5 C 0,0 km/h (0 Bft)
05.05.2016 22:55 5,8 C 5,6 C 82 % 1018,9 hPa 0,0 mm 0,0 km/h (0 Bft) S-SO 157 0 min 3,0 C 0,0 km/h (0 Bft)
05.05.2016 23:00 5,8 C 5,6 C 83 % 1018,9 hPa 0,0 mm 0,3 km/h (0 Bft) O-NO 67 0 min 3,1 C 0,0 km/h (0 Bft)
05.05.2016 23:05 5,9 C 5,8 C 78 % 1018,9 hPa 0,0 mm 0,3 km/h (0 Bft) S-SO 157 0 min 2,4 C 0,0 km/h (0 Bft)
05.05.2016 23:10 5,7 C 5,6 C 78 % 1018,9 hPa 0,0 mm 0,3 km/h (0 Bft) W-NW 292 0 min 2,2 C 0,0 km/h (0 Bft)
05.05.2016 23:15 5,8 C 5,8 C 79 % 1018,7 hPa 0,0 mm 0,6 km/h (0 Bft) SO 135 0 min 2,4 C 0,0 km/h (0 Bft)
05.05.2016 23:20 6,2 C 6,1 C 79 % 1018,7 hPa 0,0 mm 0,0 km/h (0 Bft) SO 135 0 min 2,8 C 0,0 km/h (0 Bft)
05.05.2016 23:25 6,0 C 5,7 C 85 % 1018,7 hPa 0,0 mm 0,3 km/h (0 Bft) S-SO 157 0 min 3,7 C 0,0 km/h (0 Bft)
05.05.2016 23:30 6,1 C 6,0 C 79 % 1018,7 hPa 0,0 mm 0,3 km/h (0 Bft) S 180 0 min 2,7 C 0,0 km/h (0 Bft)
05.05.2016 23:35 5,7 C 5,5 C 86 % 1018,6 hPa 0,0 mm 0,3 km/h (0 Bft) N-NO 22 0 min 3,5 C 0,0 km/h (0 Bft)
05.05.2016 23:40 5,2 C 5,1 C 85 % 1018,6 hPa 0,0 mm 0,0 km/h (0 Bft) S-SO 157 0 min 2,9 C 0,0 km/h (0 Bft)
05.05.2016 23:45 4,7 C 4,6 C 85 % 1018,6 hPa 0,0 mm 0,0 km/h (0 Bft) S-SO 157 0 min 2,4 C 0,0 km/h (0 Bft)
05.05.2016 23:50 4,6 C 4,4 C 84 % 1018,6 hPa 0,0 mm 0,0 km/h (0 Bft) N-NO 22 0 min 2,1 C 0,0 km/h (0 Bft)
05.05.2016 23:55 4,5 C 4,3 C 84 % 1018,4 hPa 0,0 mm 0,0 km/h (0 Bft) N-NO 22 0 min 2,0 C 0,0 km/h (0 Bft)
_ Min-Zeit 05:55 05:55 16:00 23:55 - 23:55 - - - 05:55 23:55
Minimum _ -2,7 C -3,0 C 50 % 1018,4 hPa - 0,0 km/h (0 Bft) - - - -4,7 C 0,0 km/h (0 Bft)
_ Max-Zeit 15:30 16:20 06:20 00:10 23:55 17:15 - - 20:20 17:40 15:05
Maximum _ 15,3 C 18,6 C 87 % 1024,2 hPa 0,0 mm 18,5 km/h
O-NO (3 Bft)
- - 5 min 5,8 C 37,3 km/h
NO (5 Bft)
Durchschnitt _ 7,2 C 9,1 C 69 % 1021,6 hPa #0,0 mm 6,4 km/h (2 Bft) O-NO - #6:13 h 1,5 C 8,3 km/h (2 Bft)